Location: Powder Track
(41.8531°N, 72.3584°W)
Time: 22:23:50
(UTC+00:00)

Vanguard 2 Rocket - Pass Details

Date: 03 August 2021
Orbit: 555 x 3324 km, 32.9° (Epoch: 18 September)

Event Time Altitude Azimuth Distance (km) Brightness Sun altitude
Rises 14:36:59 0° 256° (WSW) 2,721 9.1 51.6°
Reaches altitude 10° 14:39:25 10° 240° (WSW) 1,872 8.5 52.0°
Maximum altitude 14:42:39 22° 187° (S) 1,388 8.4 52.5°
Drops below altitude 10° 14:46:36 10° 136° (SE) 2,345 9.8 53.1°
Sets 14:50:06 0° 122° (ESE) 3,643 10.6 53.7°
